Regional Weather Roundup
Issued by NWS

Home | Current Version | Previous Version | Text Only | Print | Product List | Glossary Off
Versions: 1 2 3 4 5 6 7 8 9 10 11 12 13 14 15 16 17 18 19 20 21 22 23 24 25 26 27 28 29 30 31 32 33 34 35 36 37 38 39 40 41 42 43 44 45 46 47 48 49 50

000
ASUS43 KOAX 052202
RWRNE

WEATHER ROUNDUP FOR NEBRASKA
NATIONAL WEATHER SERVICE OMAHA NE
400 PM CST FRI FEB 05 2016

NOTES: SATELLITE DATA IS BEING USED TO AUGMENT CLOUD COVER ABOVE
       12000 FEET.
       "FAIR" INDICATES FEW OR NO CLOUDS BELOW 12,000 FEET WITH NO
       SIGNIFICANT WEATHER AND/OR OBSTRUCTIONS TO VISIBILITY.

  * THESE STATIONS DO NOT REPORT WEATHER SUCH AS RAIN...SNOW OR FOG.

NEZ001>004-019>022-054>056-052300-
NEBRASKA PANHANDLE

CITY           SKY/WX    TMP DP  RH WIND       PRES   REMARKS
SCOTTSBLUFF    SUNNY     34  18  52 W16       30.26S WCI  24
ALLIANCE       SUNNY     33  22  63 NW18      30.22R WCI  22
CHADRON        SUNNY     37  25  61 W21       30.23S WCI  26
KIMBALL        SUNNY     31  19  60 NW15G21   30.25R WCI  20
SIDNEY         SUNNY     30  21  69 NW18      30.25R WCI  18
$$

NEZ057>060-069>072-079>082-052300-
SOUTHWEST NEBRASKA

CITY           SKY/WX    TMP DP  RH WIND       PRES   REMARKS
NORTH PLATTE   PTSUNNY   36  26  67 NW13      30.22R WCI  27
IMPERIAL       SUNNY     36  23  59 NW16      30.24R WCI  26
MCCOOK         SUNNY     36  25  64 NW13      30.24R WCI  27
$$

NEZ005>010-023>029-035>040-094-052300-
NORTH CENTRAL NEBRASKA

CITY           SKY/WX    TMP DP  RH WIND       PRES   REMARKS
VALENTINE      CLOUDY    34  26  72 NW16G24   30.21R WCI  24
AINSWORTH      CLOUDY    34  26  74 NW15G24   30.20R WCI  24
BROKEN BOW     CLOUDY    37  26  64 NW18      30.19R WCI  27
ORD            CLOUDY    37  28  70 NW12      30.18R WCI  29
$$

NEZ041-046>049-061>064-073>077-083>087-052300-
SOUTH CENTRAL NEBRASKA

CITY           SKY/WX    TMP DP  RH WIND       PRES   REMARKS
GRAND ISLAND   CLOUDY    37  29  72 W8        30.20R WCI  31
HASTINGS       PTSUNNY   37  28  70 W8        30.20R WCI  31
HEBRON         CLOUDY    35  27  73 SW9       30.24S WCI  27
KEARNEY *      PTSUNNY   39  -9  12 NW7       30.21R WCI  34
$$

NEZ011>018-030>034-042>045-052300-
NORTHEAST NEBRASKA

CITY           SKY/WX    TMP DP  RH WIND       PRES   REMARKS
NORFOLK        CLOUDY    35  30  82 SW7       30.16R WCI  29
COLUMBUS *     CLOUDY    36  25  64 SW9       30.20R WCI  29
FREMONT        CLOUDY    31  27  84 S9        30.22R WCI  23
TEKAMAH        CLOUDY    30  27  88 S14       30.23R WCI  19
$$

NEZ050>053-065>068-078-088>093-052300-
SOUTHEAST NEBRASKA

CITY           SKY/WX    TMP DP  RH WIND       PRES   REMARKS
LINCOLN        MOSUNNY   34  29  82 S7        30.24S WCI  28
OMAHA EPPLEY   LGT SNOW  31  27  85 S12       30.24F FOG     WCI  22
BEATRICE       PTSUNNY   36  28  72 SW8       30.24F WCI  29
FALLS CITY     CLOUDY    37  24  59 S5        30.28R WCI  33
NEBRASKA CITY  LGT SNOW  31  31 100 S8        30.25F WCI  24
$$

NEZ044-045-051>053-067-052300-
OMAHA AREA

CITY           SKY/WX    TMP DP  RH WIND       PRES   REMARKS
OMAHA EPPLEY   LGT SNOW  31  27  85 S12       30.24F FOG     WCI  22
FREMONT        CLOUDY    31  27  84 S9        30.22R WCI  23
OFFUTT AFB     LGT SNOW  32  28  86 S8        30.24F WCI  25
WAHOO          CLOUDY    32  29  90 S8        30.22S WCI  25
$$



USA.gov is the U.S. government's official web portal to all federal, state and local government web resources and services.